Home   Weather   Bochum   Past weeks
Flag for Germany

Past Weather in Bochum, North Rhine-Westphalia, Germany — Yesterday and Last 2 Weeks

Now
50 °F

Mostly cloudy.


Feels Like: 48 °F
Forecast: 69 / 44 °F
Wind: 6 mph from West

Location: Dortmund / Wickede

Current Time: May 22, 2019 at 7:07:22 am

Latest Report: May 22, 2019 at 6:20 am


Visibility: 4 mi

Pressure: 30.04 "Hg

Humidity: 94%

Dew Point: 48 °F

Location of BochumLocation

Past Weather in Bochum — Graph

°F

Bochum Temperature Yesterday

Maximum temperature yesterday: 57 °F (at 12:20 am)
Minimum temperature yesterday: 52 °F (at 11:50 pm)
Average temperature yesterday: 55 °F

High & Low Weather Summary for the Past Weeks

 TemperatureHumidityPressure
High73 °F (May 18, 2:20 pm)100% (May 7, 5:20 am)30.69 "Hg (May 7, 5:20 am)
Low36 °F (May 7, 5:20 am)29% (May 13, 5:20 pm)29.42 "Hg (May 8, 6:50 pm)
Average52 °F75%29.97 "Hg
* Reported May 7 5:20 am — May 22 5:50 am, Bochum. Weather by CustomWeather, © 2019

Note: Actual official high and low records may vary slightly from our data, if they occured in-between our weather recording intervals... More about our weather records

Advertising

Bochum Weather History for the Previous 24 Hours

Scroll right to see more
 ConditionsComfort  
Time TempWeatherWind HumidityBarometerVisibility
5:50 am
Wed, May 22
50 °FLow clouds.7 mph100%30.04 "HgN/A
5:20 am50 °FDrizzle. Mostly cloudy.8 mph100%30.01 "Hg4 mi
4:50 am52 °FLow clouds.6 mph100%30.01 "Hg4 mi
4:20 am52 °FPassing clouds.7 mph100%30.01 "Hg2 mi
3:50 am52 °FLow clouds.6 mph100%30.01 "Hg2 mi
3:20 am52 °FLow clouds.7 mph100%30.01 "Hg2 mi
2:50 am52 °FPassing clouds.7 mph100%30.01 "Hg2 mi
2:20 am52 °FLow clouds.6 mph100%30.01 "Hg2 mi
1:50 am52 °FLow clouds.8 mph100%30.01 "Hg2 mi
1:20 am52 °FPassing clouds.7 mph100%30.01 "Hg2 mi
12:50 am52 °FPassing clouds.7 mph100%30.01 "Hg3 mi
12:20 am52 °FLow clouds.7 mph100%30.01 "Hg4 mi
11:50 pm
Tue, May 21
52 °FLow clouds.7 mph100%30.01 "Hg3 mi
11:20 pm54 °FLow clouds.7 mph94%29.98 "Hg3 mi
10:50 pm54 °FMostly cloudy.6 mph94%29.98 "Hg4 mi
10:20 pm54 °FMostly cloudy.7 mph94%29.98 "HgN/A
9:50 pm54 °FLow clouds.6 mph94%29.98 "Hg5 mi
9:20 pm54 °FLow clouds.6 mph94%29.98 "Hg5 mi
8:50 pm54 °FLow clouds.8 mph94%29.98 "Hg5 mi
8:20 pm54 °FMostly cloudy.10 mph94%29.95 "Hg6 mi
7:50 pm55 °FMostly cloudy.8 mph94%29.95 "Hg5 mi
7:20 pm55 °FLow clouds.8 mph88%29.95 "Hg5 mi
6:50 pm55 °FLow clouds.7 mph94%29.95 "Hg4 mi
6:20 pm55 °FMostly cloudy.7 mph94%29.95 "Hg4 mi
5:50 pm55 °FFog.7 mph94%29.92 "Hg3 mi
5:20 pm55 °FMostly cloudy.8 mph94%29.92 "Hg5 mi
4:50 pm57 °FMostly cloudy.7 mph88%29.92 "Hg5 mi
4:20 pm55 °FPartly sunny.7 mph94%29.92 "Hg5 mi
3:50 pm55 °FLow clouds.6 mph94%29.92 "Hg4 mi
3:20 pm55 °FMostly cloudy.8 mph100%29.92 "Hg4 mi
2:50 pm55 °FLow clouds.7 mph94%29.89 "Hg4 mi
1:50 pm55 °FLight rain. Low clouds.6 mph100%29.89 "Hg3 mi
1:20 pm55 °FLight rain. Low clouds.8 mph94%29.86 "Hg3 mi
12:50 pm55 °FLow clouds.7 mph94%29.86 "Hg5 mi
12:20 pm55 °FDrizzle. Low clouds.7 mph94%29.86 "Hg6 mi
11:50 am55 °FDrizzle. Low clouds.6 mph94%29.83 "HgN/A
11:20 am55 °FLight rain. Low clouds.8 mph94%29.83 "HgN/A
10:50 am55 °FLight rain. Low clouds.6 mph94%29.83 "Hg6 mi
10:20 am55 °FLow clouds.6 mph94%29.83 "Hg6 mi
9:50 am55 °FDrizzle. Low clouds.6 mph94%29.80 "Hg6 mi
9:20 am55 °FDrizzle. Low clouds.6 mph94%29.80 "Hg4 mi
8:50 am55 °FFog.6 mph94%29.80 "Hg3 mi
8:20 am55 °FLight rain. Low clouds.5 mph94%29.77 "Hg3 mi
7:50 am54 °FLight rain. Partly sunny.6 mph100%29.77 "Hg2 mi
7:20 am54 °FLight rain. Low clouds.7 mph100%29.77 "Hg2 mi
Weather by CustomWeather, © 2019

See weather overview